contact:dominique.lefevre@mio.osupytheas.fr, maurice.libes@osupytheas.fr, didier.mallarino@osupytheas.fr
Project:EMSO http://www.emso-fr.org/EMSO-France
Depth: 2436.0 m
Title:EMSO Ligure Ouest : Data MII capteur CSTAR
DateTime,Latitude,Longitude,Instrument_Serial,Reference_Counts,Signal_Counts,Corrected_Signal_raw_counts,Calculated_Beam_c_inverse_meters,Internal_thermistor_counts
DateTime,Latitude,Longitude,Instrument_Serial,Reference_Counts,Signal_Counts,Corrected_Signal_raw_counts,Calculated_Beam_c_inverse_meters,Internal_thermistor_counts
2022-07-26T00:00:32,42.805,6.029,CST-1368DR,4643,5026,11531,01.213,551
2022-07-26T00:03:34,42.805,6.029,CST-1368DR,4643,5025,11529,01.214,551
2022-07-26T00:06:35,42.805,6.029,CST-1368DR,4643,5025,11528,01.214,551
2022-07-26T00:09:37,42.805,6.029,CST-1368DR,4643,5030,11539,01.210,551
2022-07-26T00:12:38,42.805,6.029,CST-1368DR,4643,5029,11536,01.211,551
2022-07-26T00:15:40,42.805,6.029,CST-1368DR,4643,5024,11525,01.215,551
2022-07-26T00:18:42,42.805,6.029,CST-1368DR,4643,5027,11531,01.213,551
2022-07-26T00:21:43,42.805,6.029,CST-1368DR,4643,5035,11551,01.206,551
2022-07-26T00:24:45,42.805,6.029,CST-1368DR,4643,5028,11534,01.212,551
2022-07-26T00:27:46,42.805,6.029,CST-1368DR,4643,5026,11531,01.213,551
2022-07-26T00:30:48,42.805,6.029,CST-1368DR,4643,5026,11529,01.214,551
2022-07-26T00:33:50,42.805,6.029,CST-1368DR,4643,5027,11533,01.212,551
2022-07-26T00:36:51,42.805,6.029,CST-1368DR,4643,5022,11521,01.216,551
2022-07-26T00:39:53,42.805,6.029,CST-1368DR,4643,5036,11553,01.205,551
2022-07-26T00:42:54,42.805,6.029,CST-1368DR,4643,5024,11526,01.215,551
2022-07-26T00:45:56,42.805,6.029,CST-1368DR,4643,5025,11529,01.214,551
2022-07-26T00:48:57,42.805,6.029,CST-1368DR,4643,5030,11538,01.211,551
2022-07-26T00:51:59,42.805,6.029,CST-1368DR,4643,5024,11524,01.215,551
2022-07-26T00:55:01,42.805,6.029,CST-1368DR,4643,5027,11532,01.213,551
2022-07-26T00:58:02,42.805,6.029,CST-1368DR,4643,5026,11530,01.213,551
2022-07-26T01:01:04,42.805,6.029,CST-1368DR,4643,5030,11538,01.211,551
2022-07-26T01:04:05,42.805,6.029,CST-1368DR,4643,5027,11533,01.212,551
2022-07-26T01:07:07,42.805,6.029,CST-1368DR,4643,5029,11537,01.211,551
2022-07-26T01:10:08,42.805,6.029,CST-1368DR,4643,5028,11534,01.212,551
2022-07-26T01:13:10,42.805,6.029,CST-1368DR,4643,5027,11533,01.212,551
2022-07-26T01:16:12,42.805,6.029,CST-1368DR,4643,5044,11572,01.199,551
2022-07-26T01:19:13,42.805,6.029,CST-1368DR,4643,5030,11539,01.210,551
2022-07-26T01:22:15,42.805,6.029,CST-1368DR,4643,5023,11523,01.216,551
2022-07-26T01:25:16,42.805,6.029,CST-1368DR,4643,5032,11544,01.209,551
2022-07-26T01:28:18,42.805,6.029,CST-1368DR,4643,5027,11531,01.213,551
2022-07-26T01:31:20,42.805,6.029,CST-1368DR,4643,5033,11546,01.208,551
2022-07-26T01:34:21,42.805,6.029,CST-1368DR,4643,5021,11518,01.218,551
2022-07-26T01:37:23,42.805,6.029,CST-1368DR,4642,5014,11504,01.222,551
2022-07-26T01:40:24,42.805,6.029,CST-1368DR,4643,5024,11526,01.215,551
2022-07-26T01:43:26,42.805,6.029,CST-1368DR,4643,5019,11514,01.219,551
2022-07-26T01:46:27,42.805,6.029,CST-1368DR,4643,5035,11550,01.206,551
2022-07-26T01:49:29,42.805,6.029,CST-1368DR,4643,5021,11518,01.218,551
2022-07-26T01:52:31,42.805,6.029,CST-1368DR,4642,5021,11520,01.217,551
2022-07-26T01:55:32,42.805,6.029,CST-1368DR,4642,5017,11513,01.219,551
2022-07-26T01:58:34,42.805,6.029,CST-1368DR,4642,5026,11533,01.212,551
2022-07-26T02:01:35,42.805,6.029,CST-1368DR,4643,5025,11528,01.214,551
2022-07-26T02:04:37,42.805,6.029,CST-1368DR,4643,5015,11506,01.222,551
2022-07-26T02:07:39,42.805,6.029,CST-1368DR,4642,5016,11509,01.221,551
2022-07-26T02:10:40,42.805,6.029,CST-1368DR,4642,5017,11511,01.220,551
2022-07-26T02:13:42,42.805,6.029,CST-1368DR,4642,5017,11513,01.219,551
2022-07-26T02:16:43,42.805,6.029,CST-1368DR,4643,5029,11536,01.211,551
2022-07-26T02:19:45,42.805,6.029,CST-1368DR,4642,5024,11528,01.214,551
2022-07-26T02:22:46,42.805,6.029,CST-1368DR,4643,5020,11516,01.218,551
2022-07-26T02:25:48,42.805,6.029,CST-1368DR,4642,5020,11518,01.218,551
2022-07-26T02:28:50,42.805,6.029,CST-1368DR,4642,5022,11524,01.215,551
2022-07-26T02:31:51,42.805,6.029,CST-1368DR,4642,5025,11531,01.213,551
2022-07-26T02:34:53,42.805,6.029,CST-1368DR,4642,5024,11527,01.214,551
2022-07-26T02:37:54,42.805,6.029,CST-1368DR,4643,5023,11524,01.215,551
2022-07-26T02:40:56,42.805,6.029,CST-1368DR,4643,5039,11559,01.203,551
2022-07-26T02:43:57,42.805,6.029,CST-1368DR,4642,5023,11526,01.215,551
2022-07-26T02:46:59,42.805,6.029,CST-1368DR,4643,5036,11552,01.206,551
2022-07-26T02:50:01,42.805,6.029,CST-1368DR,4642,5030,11541,01.210,551
2022-07-26T02:53:02,42.805,6.029,CST-1368DR,4643,5027,11532,01.213,551
2022-07-26T02:56:04,42.805,6.029,CST-1368DR,4642,5030,11541,01.210,551
2022-07-26T02:59:05,42.805,6.029,CST-1368DR,4642,5024,11527,01.214,551
2022-07-26T03:02:07,42.805,6.029,CST-1368DR,4642,5019,11515,01.219,551
2022-07-26T03:05:09,42.805,6.029,CST-1368DR,4642,5023,11526,01.215,551
2022-07-26T03:08:10,42.805,6.029,CST-1368DR,4642,5029,11539,01.210,551
2022-07-26T03:11:12,42.805,6.029,CST-1368DR,4643,5023,11522,01.216,551
2022-07-26T03:14:13,42.805,6.029,CST-1368DR,4643,5051,11588,01.193,551
2022-07-26T03:17:15,42.805,6.029,CST-1368DR,4642,5023,11525,01.215,551
2022-07-26T03:20:16,42.805,6.029,CST-1368DR,4642,5022,11524,01.215,551
2022-07-26T03:23:18,42.805,6.029,CST-1368DR,4642,5019,11515,01.219,551
2022-07-26T03:26:20,42.805,6.029,CST-1368DR,4642,5023,11526,01.215,551
2022-07-26T03:29:21,42.805,6.029,CST-1368DR,4642,5029,11539,01.210,551
2022-07-26T03:32:23,42.805,6.029,CST-1368DR,4642,5019,11516,01.218,551
2022-07-26T03:35:24,42.805,6.029,CST-1368DR,4642,5025,11530,01.213,551
2022-07-26T03:38:26,42.805,6.029,CST-1368DR,4642,5022,11524,01.215,551
2022-07-26T03:41:27,42.805,6.029,CST-1368DR,4642,5026,11531,01.213,551
2022-07-26T03:44:29,42.805,6.029,CST-1368DR,4642,5021,11521,01.216,551
2022-07-26T03:47:31,42.805,6.029,CST-1368DR,4642,5024,11527,01.214,551
2022-07-26T03:50:32,42.805,6.029,CST-1368DR,4642,5020,11519,01.217,551
2022-07-26T03:53:34,42.805,6.029,CST-1368DR,4642,5030,11542,01.209,551
2022-07-26T03:56:35,42.805,6.029,CST-1368DR,4642,5025,11530,01.213,551
2022-07-26T03:59:37,42.805,6.029,CST-1368DR,4643,5054,11594,01.191,551
2022-07-26T04:02:39,42.805,6.029,CST-1368DR,4642,5039,11561,01.203,551
2022-07-26T04:05:40,42.805,6.029,CST-1368DR,4642,5024,11528,01.214,551
2022-07-26T04:08:42,42.805,6.029,CST-1368DR,4642,5021,11521,01.216,551
2022-07-26T04:11:43,42.805,6.029,CST-1368DR,4642,5024,11527,01.214,551
2022-07-26T04:14:45,42.805,6.029,CST-1368DR,4642,5024,11529,01.214,551
2022-07-26T04:17:46,42.805,6.029,CST-1368DR,4642,5021,11521,01.216,551
2022-07-26T04:20:48,42.805,6.029,CST-1368DR,4642,5031,11543,01.209,551
2022-07-26T04:23:50,42.805,6.029,CST-1368DR,4642,5026,11533,01.212,551
2022-07-26T04:26:51,42.805,6.029,CST-1368DR,4642,5024,11529,01.214,551
2022-07-26T04:29:53,42.805,6.029,CST-1368DR,4642,5022,11524,01.215,551
2022-07-26T04:32:54,42.805,6.029,CST-1368DR,4642,5024,11528,01.214,551
2022-07-26T04:35:56,42.805,6.029,CST-1368DR,4642,5025,11530,01.213,551
2022-07-26T04:38:58,42.805,6.029,CST-1368DR,4642,5026,11531,01.213,551
2022-07-26T04:41:59,42.805,6.029,CST-1368DR,4642,5021,11521,01.216,551
2022-07-26T04:45:01,42.805,6.029,CST-1368DR,4642,5023,11526,01.215,551
2022-07-26T04:48:02,42.805,6.029,CST-1368DR,4642,5021,11521,01.216,551
2022-07-26T04:51:04,42.805,6.029,CST-1368DR,4642,5031,11543,01.209,551
2022-07-26T04:54:05,42.805,6.029,CST-1368DR,4642,5018,11515,01.219,551
2022-07-26T04:57:07,42.805,6.029,CST-1368DR,4642,5019,11517,01.218,551
2022-07-26T05:00:09,42.805,6.029,CST-1368DR,4642,5033,11549,01.207,551
2022-07-26T05:03:10,42.805,6.029,CST-1368DR,4642,5025,11529,01.214,551
2022-07-26T05:06:12,42.805,6.029,CST-1368DR,4642,5032,11546,01.208,551
2022-07-26T05:09:13,42.805,6.029,CST-1368DR,4642,5026,11533,01.212,551
2022-07-26T05:12:15,42.805,6.029,CST-1368DR,4642,5023,11526,01.215,551
2022-07-26T05:15:16,42.805,6.029,CST-1368DR,4642,5029,11540,01.210,551
2022-07-26T05:18:18,42.805,6.029,CST-1368DR,4642,5027,11535,01.212,551
2022-07-26T05:21:20,42.805,6.029,CST-1368DR,4642,5027,11535,01.212,551
2022-07-26T05:24:21,42.805,6.029,CST-1368DR,4642,5002,11478,01.231,551
2022-07-26T05:27:23,42.805,6.029,CST-1368DR,4642,5024,11528,01.214,551
2022-07-26T05:30:24,42.805,6.029,CST-1368DR,4642,5026,11533,01.212,551
2022-07-26T05:33:26,42.805,6.029,CST-1368DR,4642,5029,11538,01.211,551
2022-07-26T05:36:28,42.805,6.029,CST-1368DR,4642,5049,11585,01.194,551
2022-07-26T05:39:29,42.805,6.029,CST-1368DR,4642,5024,11528,01.214,551
2022-07-26T05:42:31,42.805,6.029,CST-1368DR,4642,5026,11531,01.213,551
2022-07-26T05:45:32,42.805,6.029,CST-1368DR,4642,5036,11554,01.205,551
2022-07-26T05:48:34,42.805,6.029,CST-1368DR,4642,5026,11533,01.212,551
2022-07-26T05:51:35,42.805,6.029,CST-1368DR,4642,5027,11534,01.212,551
2022-07-26T05:54:37,42.805,6.029,CST-1368DR,4642,5023,11525,01.215,551
2022-07-26T05:57:39,42.805,6.029,CST-1368DR,4642,5039,11561,01.203,551
2022-07-26T06:00:40,42.805,6.029,CST-1368DR,4642,5027,11534,01.212,551
2022-07-26T06:03:42,42.805,6.029,CST-1368DR,4642,5032,11547,01.207,551
2022-07-26T06:06:43,42.805,6.029,CST-1368DR,4642,5034,11550,01.206,551
2022-07-26T06:09:45,42.805,6.029,CST-1368DR,4642,5036,11555,01.205,551
2022-07-26T06:12:46,42.805,6.029,CST-1368DR,4642,5027,11534,01.212,551
2022-07-26T06:15:48,42.805,6.029,CST-1368DR,4642,5023,11525,01.215,551
2022-07-26T06:18:50,42.805,6.029,CST-1368DR,4642,5020,11519,01.217,551
2022-07-26T06:21:51,42.805,6.029,CST-1368DR,4642,5026,11533,01.212,551
2022-07-26T06:24:53,42.805,6.029,CST-1368DR,4642,5022,11522,01.216,551
2022-07-26T06:27:54,42.805,6.029,CST-1368DR,4642,5020,11518,01.218,551
2022-07-26T06:30:56,42.805,6.029,CST-1368DR,4642,5021,11521,01.216,551
2022-07-26T06:33:58,42.805,6.029,CST-1368DR,4642,5021,11520,01.217,551
2022-07-26T06:36:59,42.805,6.029,CST-1368DR,4642,5018,11515,01.219,551
2022-07-26T06:40:01,42.805,6.029,CST-1368DR,4642,5016,11510,01.220,551
2022-07-26T06:43:02,42.805,6.029,CST-1368DR,4642,5020,11518,01.218,551
2022-07-26T06:46:04,42.805,6.029,CST-1368DR,4642,5020,11518,01.218,551
2022-07-26T06:49:05,42.805,6.029,CST-1368DR,4642,5021,11520,01.217,551
2022-07-26T06:52:07,42.805,6.029,CST-1368DR,4642,5023,11525,01.215,551
2022-07-26T06:55:09,42.805,6.029,CST-1368DR,4642,5025,11531,01.213,551
2022-07-26T06:58:10,42.805,6.029,CST-1368DR,4642,5026,11531,01.213,550
2022-07-26T07:01:12,42.805,6.029,CST-1368DR,4642,5035,11553,01.205,551
2022-07-26T07:04:13,42.805,6.029,CST-1368DR,4642,5047,11580,01.196,551
2022-07-26T07:07:15,42.805,6.029,CST-1368DR,4642,5032,11546,01.208,551
2022-07-26T07:10:16,42.805,6.029,CST-1368DR,4642,5040,11565,01.201,551
2022-07-26T07:13:18,42.805,6.029,CST-1368DR,4642,5031,11544,01.209,551
2022-07-26T07:16:20,42.805,6.029,CST-1368DR,4642,5033,11548,01.207,551
2022-07-26T07:19:21,42.805,6.029,CST-1368DR,4642,5036,11554,01.205,551
2022-07-26T07:22:23,42.805,6.029,CST-1368DR,4642,5040,11565,01.201,551
2022-07-26T07:25:24,42.805,6.029,CST-1368DR,4642,5040,11565,01.201,551
2022-07-26T07:28:26,42.805,6.029,CST-1368DR,4642,5030,11542,01.209,551
2022-07-26T07:31:28,42.805,6.029,CST-1368DR,4642,5031,11545,01.208,551
2022-07-26T07:34:29,42.805,6.029,CST-1368DR,4642,5038,11559,01.203,551
2022-07-26T07:37:31,42.805,6.029,CST-1368DR,4642,5031,11543,01.209,551
2022-07-26T07:40:32,42.805,6.029,CST-1368DR,4642,5041,11566,01.201,551
2022-07-26T07:43:34,42.805,6.029,CST-1368DR,4642,5033,11549,01.207,551
2022-07-26T07:46:35,42.805,6.029,CST-1368DR,4642,5029,11539,01.210,551
2022-07-26T07:49:37,42.805,6.029,CST-1368DR,4642,5032,11546,01.208,551
2022-07-26T07:52:39,42.805,6.029,CST-1368DR,4642,5021,11520,01.217,551
2022-07-26T07:55:40,42.805,6.029,CST-1368DR,4642,5028,11538,01.211,551
2022-07-26T07:58:42,42.805,6.029,CST-1368DR,4642,5019,11517,01.218,551
2022-07-26T08:01:43,42.805,6.029,CST-1368DR,4642,5024,11527,01.214,551
2022-07-26T08:04:45,42.805,6.029,CST-1368DR,4642,5027,11534,01.212,551
2022-07-26T08:07:46,42.805,6.029,CST-1368DR,4642,5026,11532,01.213,551
2022-07-26T08:10:48,42.805,6.029,CST-1368DR,4642,5014,11504,01.222,551
2022-07-26T08:13:50,42.805,6.029,CST-1368DR,4642,5028,11537,01.211,551
2022-07-26T08:16:51,42.805,6.029,CST-1368DR,4642,5026,11533,01.212,551
2022-07-26T08:19:53,42.805,6.029,CST-1368DR,4642,5040,11564,01.202,551
2022-07-26T08:22:54,42.805,6.029,CST-1368DR,4642,5024,11528,01.214,551
2022-07-26T08:25:56,42.805,6.029,CST-1368DR,4642,5029,11539,01.210,551
2022-07-26T08:28:58,42.805,6.029,CST-1368DR,4642,5023,11526,01.215,551
2022-07-26T08:31:59,42.805,6.029,CST-1368DR,4642,5024,11527,01.214,551
2022-07-26T08:35:01,42.805,6.029,CST-1368DR,4642,5019,11517,01.218,551
2022-07-26T08:38:02,42.805,6.029,CST-1368DR,4642,5022,11523,01.216,551
2022-07-26T08:41:04,42.805,6.029,CST-1368DR,4642,5023,11526,01.215,551
2022-07-26T08:44:05,42.805,6.029,CST-1368DR,4642,5022,11524,01.215,551
2022-07-26T08:47:07,42.805,6.029,CST-1368DR,4642,5030,11541,01.210,551
2022-07-26T08:50:09,42.805,6.029,CST-1368DR,4642,5024,11529,01.214,551
2022-07-26T08:53:10,42.805,6.029,CST-1368DR,4642,5018,11514,01.219,551
2022-07-26T08:56:12,42.805,6.029,CST-1368DR,4642,5018,11515,01.219,551
2022-07-26T08:59:13,42.805,6.029,CST-1368DR,4642,5027,11534,01.212,551
2022-07-26T09:02:15,42.805,6.029,CST-1368DR,4642,5018,11514,01.219,551
2022-07-26T09:05:16,42.805,6.029,CST-1368DR,4642,5023,11525,01.215,551
2022-07-26T09:08:18,42.805,6.029,CST-1368DR,4642,5022,11523,01.216,551
2022-07-26T09:11:20,42.805,6.029,CST-1368DR,4642,5017,11511,01.220,551
2022-07-26T09:14:21,42.805,6.029,CST-1368DR,4642,5023,11526,01.215,551
2022-07-26T09:17:23,42.805,6.029,CST-1368DR,4642,5010,11496,01.225,551
2022-07-26T09:20:24,42.805,6.029,CST-1368DR,4642,5020,11519,01.217,551
2022-07-26T09:23:26,42.805,6.029,CST-1368DR,4642,5022,11522,01.216,551
2022-07-26T09:26:28,42.805,6.029,CST-1368DR,4642,5027,11535,01.212,551
2022-07-26T09:29:29,42.805,6.029,CST-1368DR,4642,5018,11513,01.219,551
2022-07-26T09:32:31,42.805,6.029,CST-1368DR,4642,5019,11516,01.218,551
2022-07-26T09:35:32,42.805,6.029,CST-1368DR,4642,5020,11519,01.217,551
2022-07-26T09:38:34,42.805,6.029,CST-1368DR,4642,5020,11518,01.218,551
2022-07-26T09:41:35,42.805,6.029,CST-1368DR,4642,5012,11499,01.224,551
2022-07-26T09:44:37,42.805,6.029,CST-1368DR,4642,5024,11527,01.214,551
2022-07-26T09:47:39,42.805,6.029,CST-1368DR,4642,5021,11520,01.217,551
2022-07-26T09:50:40,42.805,6.029,CST-1368DR,4642,5019,11517,01.218,551
2022-07-26T09:53:42,42.805,6.029,CST-1368DR,4642,5015,11507,01.221,551
2022-07-26T09:56:43,42.805,6.029,CST-1368DR,4642,5014,11506,01.222,551
2022-07-26T09:59:45,42.805,6.029,CST-1368DR,4642,5025,11530,01.213,551
2022-07-26T10:02:46,42.805,6.029,CST-1368DR,4642,5002,11477,01.232,551
2022-07-26T10:05:48,42.805,6.029,CST-1368DR,4642,5006,11486,01.229,551
2022-07-26T10:08:50,42.805,6.029,CST-1368DR,4642,5007,11489,01.228,551
2022-07-26T10:11:51,42.805,6.029,CST-1368DR,4642,5012,11499,01.224,551
2022-07-26T10:14:53,42.805,6.029,CST-1368DR,4642,5002,11477,01.232,551
2022-07-26T10:17:54,42.805,6.029,CST-1368DR,4642,5005,11484,01.229,551
2022-07-26T10:20:56,42.805,6.029,CST-1368DR,4642,5008,11491,01.227,551
2022-07-26T10:23:58,42.805,6.029,CST-1368DR,4642,5009,11494,01.226,551
2022-07-26T10:26:59,42.805,6.029,CST-1368DR,4642,5007,11490,01.227,551
2022-07-26T10:30:01,42.805,6.029,CST-1368DR,4642,5009,11492,01.227,551
2022-07-26T10:33:02,42.805,6.029,CST-1368DR,4642,5003,11480,01.231,551
2022-07-26T10:36:04,42.805,6.029,CST-1368DR,4642,5009,11494,01.226,551
2022-07-26T10:39:05,42.805,6.029,CST-1368DR,4642,5002,11476,01.232,551
2022-07-26T10:42:07,42.805,6.029,CST-1368DR,4642,5008,11491,01.227,551
2022-07-26T10:45:09,42.805,6.029,CST-1368DR,4642,5013,11503,01.223,551
2022-07-26T10:48:10,42.805,6.029,CST-1368DR,4642,5011,11498,01.224,551
2022-07-26T10:51:12,42.805,6.029,CST-1368DR,4642,5011,11498,01.224,551
2022-07-26T10:54:13,42.805,6.029,CST-1368DR,4642,5007,11489,01.228,551
2022-07-26T10:57:15,42.805,6.029,CST-1368DR,4642,5002,11476,01.232,551
2022-07-26T11:00:17,42.805,6.029,CST-1368DR,4642,5002,11478,01.231,551
2022-07-26T11:03:18,42.805,6.029,CST-1368DR,4642,4999,11470,01.234,551
2022-07-26T11:06:20,42.805,6.029,CST-1368DR,4642,5002,11476,01.232,551
2022-07-26T11:09:21,42.805,6.029,CST-1368DR,4642,5002,11478,01.231,551
2022-07-26T11:12:23,42.805,6.029,CST-1368DR,4642,5006,11486,01.229,551
2022-07-26T11:15:24,42.805,6.029,CST-1368DR,4642,5007,11488,01.228,551
2022-07-26T11:18:26,42.805,6.029,CST-1368DR,4642,5005,11484,01.229,551
2022-07-26T11:21:28,42.805,6.029,CST-1368DR,4642,5010,11495,01.226,551
2022-07-26T11:24:29,42.805,6.029,CST-1368DR,4642,5003,11480,01.231,551
2022-07-26T11:27:31,42.805,6.029,CST-1368DR,4642,5015,11507,01.221,551
2022-07-26T11:30:32,42.805,6.029,CST-1368DR,4642,5001,11475,01.233,551
2022-07-26T11:33:34,42.805,6.029,CST-1368DR,4642,5005,11484,01.229,551
2022-07-26T11:36:35,42.805,6.029,CST-1368DR,4642,5003,11480,01.231,551
2022-07-26T11:39:37,42.805,6.029,CST-1368DR,4642,5006,11486,01.229,551
2022-07-26T11:42:39,42.805,6.029,CST-1368DR,4642,5005,11484,01.229,551
2022-07-26T11:45:40,42.805,6.029,CST-1368DR,4642,5004,11482,01.230,551
2022-07-26T11:48:42,42.805,6.029,CST-1368DR,4642,5007,11488,01.228,551
2022-07-26T11:51:43,42.805,6.029,CST-1368DR,4642,5003,11479,01.231,551
2022-07-26T11:54:45,42.805,6.029,CST-1368DR,4642,5004,11481,01.230,550
2022-07-26T11:57:47,42.805,6.029,CST-1368DR,4642,5008,11492,01.227,551
2022-07-26T12:00:48,42.805,6.029,CST-1368DR,4642,5007,11490,01.227,551
2022-07-26T12:03:50,42.805,6.029,CST-1368DR,4642,4999,11471,01.234,551
2022-07-26T12:06:51,42.805,6.029,CST-1368DR,4642,5006,11487,01.228,551
2022-07-26T12:09:53,42.805,6.029,CST-1368DR,4642,5010,11495,01.226,551
2022-07-26T12:12:54,42.805,6.029,CST-1368DR,4642,5003,11479,01.231,551
2022-07-26T12:15:56,42.805,6.029,CST-1368DR,4642,5003,11479,01.231,550
2022-07-26T12:18:58,42.805,6.029,CST-1368DR,4642,5002,11478,01.231,551
2022-07-26T12:21:59,42.805,6.029,CST-1368DR,4642,5003,11479,01.231,551
2022-07-26T12:25:01,42.805,6.029,CST-1368DR,4642,5003,11480,01.231,551
2022-07-26T12:28:02,42.805,6.029,CST-1368DR,4642,5010,11495,01.226,551
2022-07-26T12:31:04,42.805,6.029,CST-1368DR,4642,5001,11476,01.232,551
2022-07-26T12:34:05,42.805,6.029,CST-1368DR,4642,5001,11474,01.233,551
2022-07-26T12:37:07,42.805,6.029,CST-1368DR,4642,4999,11469,01.235,551
2022-07-26T12:40:09,42.805,6.029,CST-1368DR,4642,5000,11472,01.234,551
2022-07-26T12:43:10,42.805,6.029,CST-1368DR,4642,5003,11480,01.231,550
2022-07-26T12:46:12,42.805,6.029,CST-1368DR,4642,5006,11486,01.229,551
2022-07-26T12:49:13,42.805,6.029,CST-1368DR,4642,5000,11474,01.233,551
2022-07-26T12:52:15,42.805,6.029,CST-1368DR,4642,5000,11472,01.234,551
2022-07-26T12:55:17,42.805,6.029,CST-1368DR,4642,4995,11462,01.237,551
2022-07-26T12:58:18,42.805,6.029,CST-1368DR,4642,4997,11465,01.236,551
2022-07-26T13:01:20,42.805,6.029,CST-1368DR,4642,5000,11474,01.233,551
2022-07-26T13:04:21,42.805,6.029,CST-1368DR,4642,5003,11479,01.231,551
2022-07-26T13:07:23,42.805,6.029,CST-1368DR,4642,4999,11471,01.234,551
2022-07-26T13:10:24,42.805,6.029,CST-1368DR,4642,5001,11474,01.233,551
2022-07-26T13:13:26,42.805,6.029,CST-1368DR,4642,5002,11477,01.232,551
2022-07-26T13:16:28,42.805,6.029,CST-1368DR,4642,5002,11477,01.232,551
2022-07-26T13:19:29,42.805,6.029,CST-1368DR,4642,5000,11474,01.233,551
2022-07-26T13:22:31,42.805,6.029,CST-1368DR,4642,5030,11541,01.210,551
2022-07-26T13:25:32,42.805,6.029,CST-1368DR,4642,5006,11486,01.229,551
2022-07-26T13:28:34,42.805,6.029,CST-1368DR,4642,5007,11488,01.228,551
2022-07-26T13:31:36,42.805,6.029,CST-1368DR,4642,5008,11490,01.227,551
2022-07-26T13:34:37,42.805,6.029,CST-1368DR,4642,5002,11478,01.231,550
2022-07-26T13:37:39,42.805,6.029,CST-1368DR,4642,5009,11494,01.226,551
2022-07-26T13:40:40,42.805,6.029,CST-1368DR,4642,5005,11484,01.229,551
2022-07-26T13:43:42,42.805,6.029,CST-1368DR,4642,5005,11485,01.229,551
2022-07-26T13:46:43,42.805,6.029,CST-1368DR,4642,5005,11485,01.229,551
2022-07-26T13:49:45,42.805,6.029,CST-1368DR,4642,5004,11482,01.230,551
2022-07-26T13:52:47,42.805,6.029,CST-1368DR,4642,5005,11484,01.229,550
2022-07-26T13:55:48,42.805,6.029,CST-1368DR,4642,5006,11487,01.228,551
2022-07-26T13:58:50,42.805,6.029,CST-1368DR,4642,5003,11479,01.231,551
2022-07-26T14:01:51,42.805,6.029,CST-1368DR,4642,5003,11479,01.231,550
2022-07-26T14:04:53,42.805,6.029,CST-1368DR,4642,5000,11473,01.233,551
2022-07-26T14:07:54,42.805,6.029,CST-1368DR,4642,5003,11480,01.231,551
2022-07-26T14:10:56,42.805,6.029,CST-1368DR,4642,5006,11486,01.229,551
2022-07-26T14:13:58,42.805,6.029,CST-1368DR,4642,5001,11474,01.233,551
2022-07-26T14:16:59,42.805,6.029,CST-1368DR,4642,5003,11480,01.231,551
2022-07-26T14:20:01,42.805,6.029,CST-1368DR,4642,4997,11467,01.235,551
2022-07-26T14:23:02,42.805,6.029,CST-1368DR,4642,5005,11484,01.229,551
2022-07-26T14:26:04,42.805,6.029,CST-1368DR,4642,5004,11483,01.230,551
2022-07-26T14:29:06,42.805,6.029,CST-1368DR,4642,5007,11488,01.228,551
2022-07-26T14:32:07,42.805,6.029,CST-1368DR,4642,5003,11479,01.231,551
2022-07-26T14:35:09,42.805,6.029,CST-1368DR,4642,5006,11486,01.229,551
2022-07-26T14:38:10,42.805,6.029,CST-1368DR,4642,5004,11482,01.230,551
2022-07-26T14:41:12,42.805,6.029,CST-1368DR,4642,5006,11486,01.229,551
2022-07-26T14:44:13,42.805,6.029,CST-1368DR,4642,5006,11487,01.228,551
2022-07-26T14:47:15,42.805,6.029,CST-1368DR,4642,5006,11486,01.229,551
2022-07-26T14:50:17,42.805,6.029,CST-1368DR,4642,5007,11488,01.228,551
2022-07-26T14:53:18,42.805,6.029,CST-1368DR,4642,5004,11483,01.230,551
2022-07-26T14:56:20,42.805,6.029,CST-1368DR,4642,5006,11487,01.228,551
2022-07-26T14:59:21,42.805,6.029,CST-1368DR,4642,5005,11484,01.229,551
2022-07-26T15:02:23,42.805,6.029,CST-1368DR,4642,5009,11493,01.226,551
2022-07-26T15:05:24,42.805,6.029,CST-1368DR,4642,5008,11492,01.227,551
2022-07-26T15:08:26,42.805,6.029,CST-1368DR,4642,5008,11490,01.227,551
2022-07-26T15:11:28,42.805,6.029,CST-1368DR,4642,5006,11487,01.228,551
2022-07-26T15:14:29,42.805,6.029,CST-1368DR,4642,5006,11486,01.229,551
2022-07-26T15:17:31,42.805,6.029,CST-1368DR,4642,5004,11482,01.230,551
2022-07-26T15:20:32,42.805,6.029,CST-1368DR,4642,5003,11479,01.231,551
2022-07-26T15:23:34,42.805,6.029,CST-1368DR,4642,5003,11480,01.231,551
2022-07-26T15:26:36,42.805,6.029,CST-1368DR,4642,5004,11481,01.230,551
2022-07-26T15:29:37,42.805,6.029,CST-1368DR,4642,5019,11515,01.219,551
2022-07-26T15:32:39,42.805,6.029,CST-1368DR,4642,5004,11482,01.230,551
2022-07-26T15:35:40,42.805,6.029,CST-1368DR,4642,5002,11478,01.231,551
2022-07-26T15:38:42,42.805,6.029,CST-1368DR,4642,5002,11478,01.231,551
2022-07-26T15:41:43,42.805,6.029,CST-1368DR,4642,5001,11476,01.232,551
2022-07-26T15:44:45,42.805,6.029,CST-1368DR,4642,5014,11505,01.222,551
2022-07-26T15:47:47,42.805,6.029,CST-1368DR,4642,5006,11487,01.228,551
2022-07-26T15:50:48,42.805,6.029,CST-1368DR,4642,5009,11493,01.226,551
2022-07-26T15:53:50,42.805,6.029,CST-1368DR,4642,5007,11488,01.228,551
2022-07-26T15:56:51,42.805,6.029,CST-1368DR,4642,5002,11478,01.231,551
2022-07-26T15:59:53,42.805,6.029,CST-1368DR,4642,5005,11484,01.229,551
2022-07-26T16:02:55,42.805,6.029,CST-1368DR,4642,5009,11492,01.227,551
2022-07-26T16:05:56,42.805,6.029,CST-1368DR,4642,5007,11490,01.227,551
2022-07-26T16:08:58,42.805,6.029,CST-1368DR,4642,5006,11487,01.228,551
2022-07-26T16:11:59,42.805,6.029,CST-1368DR,4642,4999,11469,01.235,551
2022-07-26T16:15:01,42.805,6.029,CST-1368DR,4642,5005,11484,01.229,551
2022-07-26T16:18:02,42.805,6.029,CST-1368DR,4642,5007,11490,01.227,551
2022-07-26T16:21:04,42.805,6.029,CST-1368DR,4642,5003,11480,01.231,551
2022-07-26T16:24:06,42.805,6.029,CST-1368DR,4642,5006,11486,01.229,551
2022-07-26T16:27:07,42.805,6.029,CST-1368DR,4642,4999,11471,01.234,551
2022-07-26T16:30:09,42.805,6.029,CST-1368DR,4642,5007,11489,01.228,551
2022-07-26T16:33:10,42.805,6.029,CST-1368DR,4642,5008,11490,01.227,551
2022-07-26T16:36:12,42.805,6.029,CST-1368DR,4642,5007,11490,01.227,551